| time (UTC) | temp F | wind direction | speed knots | gust knots | rain 1hr in | rain 24hr in | rain mn in | humidity % | barometer mb |
| 20260504194547 | 60 | 318 | 1.7 | 6.1 | 0.00 | 0.02 | 0.02 | 49 | 1007.5 |
| 20260504193040 | 60 | 68 | 0.0 | 0.9 | 0.01 | 0.02 | 0.02 | 53 | 1007.7 |
| 20260504191542 | 58 | 102 | 0.0 | 9.6 | 0.01 | 0.02 | 0.02 | 53 | 1007.9 |
| 20260504190038 | 57 | 179 | 0.9 | 9.6 | 0.02 | 0.02 | 0.02 | 56 | 1008.1 |
| 20260504184535 | 57 | 207 | 2.6 | 9.6 | 0.02 | 0.02 | 0.02 | 56 | 1007.8 |
| 20260504183032 | 57 | 199 | 0.0 | 4.3 | 0.01 | 0.01 | 0.01 | 58 | 1008.0 |
| 20260504181530 | 56 | 290 | 0.9 | 8.7 | 0.01 | 0.01 | 0.01 | 61 | 1008.2 |
| 20260504180029 | 55 | 236 | 0.0 | 4.3 | 0.00 | 0.00 | 0.00 | 62 | 1008.2 |
| 20260504174526 | 54 | 255 | 1.7 | 8.7 | 0.00 | 0.00 | 0.00 | 66 | 1008.4 |
| 20260504173023 | 53 | 62 | 0.0 | 6.1 | 0.00 | 0.00 | 0.00 | 70 | 1008.6 |
| 20260504171531 | 52 | 333 | 1.7 | 6.1 | 0.00 | 0.00 | 0.00 | 69 | 1008.6 |
| 20260504081516 | 37 | 338 | 0.0 | 0.0 | 0.00 | 0.01 | 0.00 | 66 | 1010.1 |
| 20260504044607 | 40 | 245 | 0.0 | 0.9 | 0.00 | 0.03 | 0.00 | 52 | 1010.1 |
| 20260504043052 | 41 | 360 | 0.0 | 5.2 | 0.00 | 0.03 | 0.00 | 51 | 1010.0 |
| 20260504041549 | 41 | 275 | 2.6 | 8.7 | 0.00 | 0.03 | 0.00 | 49 | 1009.8 |
| 20260504040053 | 42 | 47 | 0.9 | 9.6 | 0.00 | 0.03 | 0.03 | 49 | 1009.6 |
| 20260504034545 | 41 | 116 | 0.0 | 7.0 | 0.00 | 0.03 | 0.03 | 50 | 1009.3 |
| 20260504033044 | 42 | 110 | 0.9 | 13.0 | 0.00 | 0.03 | 0.03 | 48 | 1009.2 |
| 20260504031545 | 41 | 24 | 2.6 | 0.0 | 0.00 | 0.00 | 0.03 | 50 | 1009.0 |
| 20260504030043 | 40 | 230 | 0.9 | 7.0 | 0.00 | 0.04 | 0.03 | 53 | 1009.1 |
| 20260504024544 | 41 | 110 | 0.9 | 10.4 | 0.00 | 0.04 | 0.03 | 50 | 1008.9 |
| 20260504023041 | 41 | 200 | 5.2 | 9.6 | 0.00 | 0.04 | 0.03 | 51 | 1009.0 |
| 20260504021541 | 40 | 121 | 3.5 | 7.0 | 0.00 | 0.04 | 0.03 | 54 | 1009.2 |
| 20260504020040 | 40 | 284 | 0.0 | 0.9 | 0.00 | 0.04 | 0.03 | 56 | 1009.5 |
| 20260504014542 | 39 | 191 | 0.0 | 7.0 | 0.00 | 0.04 | 0.03 | 57 | 1009.2 |
| 20260504013050 | 39 | 84 | 0.0 | 4.3 | 0.00 | 0.04 | 0.03 | 58 | 1009.2 |
| 20260504011538 | 39 | 111 | 1.7 | 9.6 | 0.00 | 0.04 | 0.03 | 58 | 1009.0 |
| 20260504010041 | 39 | 51 | 0.0 | 3.5 | 0.00 | 0.04 | 0.03 | 58 | 1008.9 |
| 20260504004537 | 39 | 78 | 0.0 | 7.8 | 0.00 | 0.04 | 0.03 | 60 | 1008.8 |
| 20260504003037 | 39 | 96 | 0.0 | 2.6 | 0.00 | 0.04 | 0.03 | 60 | 1008.5 |
| 20260504001539 | 39 | 46 | 1.7 | 5.2 | 0.00 | 0.04 | 0.03 | 59 | 1008.5 |
| 20260504000037 | 39 | 65 | 0.9 | 7.8 | 0.00 | 0.04 | 0.03 | 59 | 1008.4 |
| 20260503234534 | 39 | 211 | 0.9 | 7.0 | 0.00 | 0.04 | 0.03 | 58 | 1008.2 |
| 20260503233033 | 40 | 122 | 1.7 | 11.3 | 0.00 | 0.04 | 0.03 | 59 | 1008.2 |
| 20260503231533 | 40 | 328 | 0.0 | 7.0 | 0.00 | 0.04 | 0.03 | 59 | 1008.4 |
| 20260503230036 | 40 | 75 | 1.7 | 10.4 | 0.00 | 0.04 | 0.03 | 58 | 1008.1 |
| 20260503224534 | 40 | 117 | 2.6 | 7.0 | 0.00 | 0.04 | 0.03 | 58 | 1008.1 |
| 20260503223031 | 41 | 113 | 0.0 | 5.2 | 0.00 | 0.04 | 0.03 | 58 | 1008.1 |
| 20260503221532 | 42 | 89 | 0.0 | 3.5 | 0.00 | 0.04 | 0.03 | 56 | 1008.1 |
| 20260503220030 | 42 | 183 | 0.0 | 3.5 | 0.00 | 0.04 | 0.03 | 53 | 1008.1 |
| 20260503214530 | 42 | 266 | 2.6 | 7.0 | 0.00 | 0.04 | 0.03 | 50 | 1007.9 |
| 20260503213030 | 43 | 107 | 1.7 | 9.6 | 0.00 | 0.04 | 0.03 | 50 | 1007.9 |
| 20260503211530 | 43 | 310 | 1.7 | 6.1 | 0.00 | 0.04 | 0.03 | 54 | 1007.9 |
| 20260503210027 | 42 | 134 | 0.9 | 10.4 | 0.00 | 0.04 | 0.03 | 56 | 1008.1 |
| 20260503204526 | 43 | 246 | 1.7 | 9.6 | 0.00 | 0.04 | 0.03 | 52 | 1008.0 |
| 20260503203025 | 45 | 259 | 2.6 | 7.0 | 0.00 | 0.04 | 0.03 | 50 | 1007.6 |
| 20260503201525 | 45 | 112 | 1.7 | 7.0 | 0.00 | 0.04 | 0.03 | 52 | 1007.5 |
| 20260503200024 | 44 | 158 | 3.5 | 10.4 | 0.00 | 0.04 | 0.03 | 56 | 1007.6 |